Temp
-8 -8 -8 -9 -9 -8 -8 -7 -7 -7 -7 -7 -7 -7 -6 -6 -6 -7 -6 -6 -6 -6 -6 -6 -6 -6 -6 -6 -7 -7 -7 -7 -7 -7 -7 -7 -8 -8 -8 -8 -7 -7 -7
-8 -8 -8 -8 -8 -8 -9 -8 -7 -7 -7 -7 -7 -7 -6 -6 -6 -6 -6 -6 -6 -6 -6 -6 -6 -6 -6 -7 -7 -7 -7 -7 -7 -7 -7 -7 -7 -8 -8 -7 -7 -7 -7
-9 -8 -8 -8 -8 -8 -8 -8 -7 -7 -7 -7 -7 -7 -7 -7 -6 -6 -6 -6 -6 -6 -6 -6 -6 -6 -6 -6 -6 -6 -6 -7 -7 -7 -7 -7 -7 -7 -7 -7 -7 -7 -7
-9 -9 -8 -9 -8 -8 -8 -8 -8 -8 -8 -7 -7 -6 -6 -6 -6 -6 -6 -6 -6 -6 -6 -6 -6 -6 -6 -6 -6 -6 -6 -6 -7 -7 -7 -7 -7 -7 -7 -7 -7 -7 -7
-8 -8 -8 -8 -8 -8 -8 -8 -8 -8 -8 -7 -7 -7 -6 -6 -6 -6 -7 -6 -6 -6 -6 -6 -6 -6 -6 -6 -6 -6 -6 -6 -6 -7 -7 -7 -7 -7 -7 -7 -7 -7 -7
-8 -8 -8 -8 -8 -8 -8 -8 -8 -8 -8 -7 -7 -7 -7 -7 -6 -6 -6 -6 -6 -6 -6 -6 -6 -6 -6 -6 -6 -6 -6 -6 -6 -6 -6 -7 -7 -7 -7 -7 -7 -7 -7
-8 -8 -8 -8 -8 -8 -8 -8 -8 -8 -8 -8 -7 -7 -7 -7 -7 -6 -6 -6 -6 -6 -6 -6 -6 -6 -7 -6 -7 -7 -6 -6 -6 -6 -6 -6 -7 -7 -7 -7 -7 -7 -7
-8 -8 -8 -8 -8 -8 -8 -8 -8 -8 -8 -8 -8 -7 -7 -7 -7 -7 -6 -6 -6 -6 -6 -6 -6 -6 -6 -7 -7 -7 -7 -7 -7 -7 -7 -7 -7 -7 -7 -6 -6 -6 -7
-7 -7 -7 -8 -8 -8 -8 -8 -8 -7 -7 -8 -8 -7 -7 -7 -7 -7 -7 -6 -6 -6 -6 -6 -6 -6 -6 -6 -6 -7 -7 -7 -6 -6 -6 -7 -7 -7 -7 -6 -6 -6 -6
-7 -8 -7 -7 -7 -8 -8 -8 -8 -8 -7 -8 -8 -7 -7 -7 -7 -7 -7 -6 -4 -6 -7 -6 -6 -6 -7 -7 -7 -7 -7 -7 -6 -6 -6 -6 -6 -6 -6 -6 -6 -6 -7
-8 -8 -8 -8 -7 -7 -7 -7 -8 -8 -8 -8 -8 -8 -7 -7 -7 -7 -7 -7 -7 -7 -7 -6 -6 -6 -6 -7 -7 -7 -7 -7 -7 -7 -6 -6 -6 -6 -6 -6 -7 -7 -7
-9 -8 -8 -8 -8 -7 -7 -7 -7 -7 -8 -8 -8 -8 -8 -8 -8 -7 -7 -7 -7 -7 -7 -7 -7 -7 -7 -7 -7 -7 -7 -7 -7 -6 -6 -6 -6 -6 -6 -6 -6 -7 -7
-9 -9 -8 -8 -8 -7 -7 -7 -7 -7 -7 -7 -8 -8 -8 -7 -7 -7 -8 -7 -7 -7 -7 -7 -7 -5 -7 -7 -7 -7 -8 -7 -6 -6 -6 -6 -6 -6 -6 -6 -7 -7 -7
-8 -9 -9 -8 -7 -7 -7 -7 -7 -7 -7 -7 -7 -7 -7 -7 -7 -7 -7 -7 -7 -7 -7 -7 -7 -6 -6 -6 -7 -7 -7 -7 -7 -6 -6 -6 -6 -6 -6 -7 -7 -7 -7
-8 -8 -9 -9 -9 -7 -7 -7 -7 -7 -7 -7 -7 -7 -7 -7 -8 -8 -7 -7 -7 -8 -8 -8 -7 -7 -7 -7 -7 -7 -7 -7 -7 -7 -6 -6 -6 -6 -6 -6 -6 -6 -6
-9 -8 -7 -9 -9 -9 -7 -7 -7 -7 -7 -7 -7 -7 -7 -7 -7 -7 -8 -8 -8 -8 -8 -8 -7 -7 -7 -7 -8 -8 -8 -7 -8 -7 -7 -6 -6 -5 -6 -6 -6 -6 -6
-9 -8 -8 -8 -10 -9 -9 -8 -7 -7 -7 -7 -7 -7 -7 -7 -7 -7 -7 -8 -8 -9 -8 -8 -7 -7 -7 -7 -8 -8 -8 -8 -8 -8 -7 -6 -6 -6 -6 -6 -6 -6 -6
-9 -8 -8 -6 -8 -8 -8 -9 -8 -7 -7 -7 -7 -7 -6 -7 -7 -7 -7 -7 -8 -8 -9 -8 -8 -7 -7 -7 -8 -7 -7 -7 -8 -8 -7 -7 -7 -6 -6 -6 -6 -6 -6
-10 -9 -9 -8 -6 -8 -9 -9 -8 -7 -7 -7 -7 -7 -7 -7 -7 -7 -7 -7 -8 -8 -8 -9 -8 -8 -7 -7 -7 -7 -7 -7 -8 -8 -8 -7 -7 -7 -6 -6 -6 -6 -6
-9 -10 -10 -9 -8 -8 -8 -8 -8 -7 -7 -7 -7 -8 -8 -8 -7 -7 -7 -7 -7 -8 -8 -9 -9 -8 -8 -8 -7 -7 -7 -7 -8 -7 -7 -7 -7 -7 -7 -7 -7 -7 -6
-10 -9 -10 -9 -9 -9 -8 -8 -8 -7 -7 -7 -7 -8 -8 -7 -7 -8 -7 -7 -7 -8 -8 -9 -8 -9 -8 -8 -7 -7 -7 -7 -8 -7 -7 -7 -7 -7 -7 -7 -7 -7 -7
-10 -10 -9 -9 -8 -9 -9 -8 -8 -7 -8 -7 -8 -8 -8 -8 -7 -8 -8 -8 -8 -7 -7 -8 -8 -8 -9 -7 -7 -7 -7 -7 -7 -7 -7 -7 -7 -7 -7 -7 -7 -7 -7
-10 -9 -9 -9 -8 -8 -8 -7 -8 -7 -7 -8 -7 -8 -8 -7 -7 -7 -8 -8 -8 -8 -7 -7 -8 -8 -8 -8 -6 -7 -7 -7 -7 -7 -7 -7 -7 -7 -7 -7 -7 -7 -7
-9 -9 -9 -9 -9 -9 -8 -8 -8 -7 -7 -7 -7 -7 -7 -8 -7 -7 -6 -7 -7 -7 -7 -6 -7 -7 -7 -7 -7 -7 -8 -8 -7 -7 -7 -7 -7 -7 -7 -7 -7 -6 -7
-10 -10 -9 -9 -9 -8 -8 -8 -7 -7 -7 -7 -7 -7 -7 -7 -7 -8 -8 -7 -7 -7 -7 -6 -7 -7 -6 -7 -7 -7 -8 -8 -8 -7 -8 -8 -7 -7 -7 -7 -7 -6 -7
-9 -9 -8 -9 -8 -8 -8 -8 -7 -7 -7 -7 -7 -6 -7 -7 -7 -7 -8 -7 -7 -7 -6 -6 -7 -6 -6 -7 -7 -7 -7 -7 -8 -8 -8 -8 -8 -8 -8 -7 -7 -7 -7
Height
5897 5900 5901 5903 5907 5910 5913 5916 5918 5921 5923 5924 5926 5928 5930 5931 5933 5935 5935 5937 5938 5940 5941 5942 5943 5944 5946 5946 5947 5947 5947 5947 5946 5945 5943 5942 5941 5940 5938 5937 5935 5934 5932
5894 5899 5899 5902 5906 5908 5912 5915 5918 5920 5922 5924 5925 5927 5929 5930 5932 5933 5935 5935 5937 5939 5940 5941 5942 5943 5944 5945 5945 5945 5945 5945 5945 5945 5943 5942 5941 5939 5937 5936 5933 5932 5931
5896 5899 5901 5904 5905 5907 5910 5914 5916 5919 5921 5923 5924 5925 5927 5929 5930 5932 5933 5934 5935 5937 5938 5939 5940 5941 5942 5943 5944 5944 5944 5944 5944 5943 5942 5941 5940 5938 5937 5935 5931 5929 5929
5896 5897 5899 5902 5905 5906 5908 5910 5913 5915 5919 5921 5922 5924 5925 5927 5928 5929 5931 5932 5933 5935 5936 5936 5938 5939 5940 5941 5941 5941 5942 5941 5941 5941 5940 5940 5939 5937 5936 5935 5932 5929 5927
5896 5898 5900 5902 5903 5905 5907 5909 5911 5912 5914 5916 5919 5921 5923 5925 5926 5927 5929 5930 5931 5932 5933 5934 5935 5936 5936 5937 5938 5938 5939 5938 5938 5938 5938 5938 5937 5936 5935 5933 5931 5930 5927
5894 5896 5898 5901 5902 5903 5905 5907 5909 5910 5911 5912 5914 5917 5919 5922 5923 5924 5926 5927 5928 5929 5929 5931 5932 5933 5933 5934 5935 5935 5935 5935 5935 5935 5934 5935 5934 5933 5932 5931 5930 5928 5927
5891 5893 5894 5897 5899 5901 5902 5903 5904 5906 5907 5909 5911 5912 5915 5917 5919 5920 5923 5924 5925 5926 5927 5928 5929 5929 5930 5930 5931 5930 5931 5932 5931 5931 5931 5930 5930 5930 5929 5929 5927 5926 5925
5886 5888 5889 5891 5893 5895 5897 5898 5898 5899 5902 5905 5908 5910 5911 5913 5914 5916 5918 5920 5922 5923 5924 5924 5925 5925 5926 5926 5926 5926 5925 5926 5926 5926 5926 5926 5925 5926 5925 5925 5924 5924 5922
5884 5885 5886 5887 5889 5890 5890 5892 5893 5894 5896 5901 5904 5907 5907 5908 5910 5912 5914 5916 5919 5920 5920 5920 5920 5921 5922 5923 5923 5923 5922 5922 5921 5921 5921 5921 5922 5921 5921 5920 5920 5920 5919
5881 5883 5884 5884 5885 5886 5888 5889 5888 5890 5894 5897 5901 5902 5904 5905 5906 5907 5910 5913 5888 5912 5916 5916 5916 5916 5916 5917 5918 5917 5917 5916 5916 5916 5915 5915 5916 5916 5916 5916 5914 5915 5914
5877 5879 5881 5882 5883 5883 5884 5885 5887 5888 5891 5893 5897 5898 5900 5902 5903 5903 5905 5907 5908 5907 5909 5912 5908 5911 5911 5911 5911 5911 5911 5909 5909 5909 5909 5909 5909 5910 5910 5911 5910 5910 5909
5874 5875 5877 5879 5879 5880 5881 5883 5884 5886 5887 5889 5892 5893 5893 5896 5899 5900 5901 5901 5902 5903 5903 5905 5905 5906 5905 5904 5904 5904 5904 5903 5902 5902 5902 5902 5902 5903 5903 5904 5905 5904 5902
5870 5871 5871 5873 5875 5877 5878 5879 5881 5882 5883 5886 5887 5888 5889 5890 5891 5893 5895 5895 5897 5898 5898 5900 5899 5894 5899 5898 5896 5897 5896 5894 5895 5894 5894 5894 5894 5895 5896 5897 5898 5897 5896
5862 5864 5865 5867 5868 5869 5872 5874 5876 5877 5878 5880 5883 5883 5883 5885 5887 5889 5891 5894 5894 5895 5893 5893 5892 5893 5890 5890 5889 5889 5887 5888 5887 5886 5886 5887 5887 5887 5888 5889 5890 5890 5890
5853 5854 5857 5858 5862 5864 5863 5866 5869 5871 5874 5875 5877 5880 5881 5880 5881 5883 5885 5888 5889 5890 5889 5887 5886 5886 5885 5882 5882 5880 5880 5880 5880 5879 5879 5879 5878 5879 5880 5882 5882 5883 5883
5841 5842 5846 5851 5850 5856 5859 5860 5862 5864 5867 5870 5871 5874 5876 5878 5878 5878 5879 5881 5881 5883 5884 5881 5881 5879 5880 5878 5876 5875 5874 5874 5873 5872 5871 5870 5870 5871 5873 5875 5876 5877 5878
5826 5827 5821 5840 5841 5847 5850 5850 5856 5859 5860 5862 5865 5867 5869 5871 5872 5874 5874 5875 5875 5875 5876 5875 5875 5874 5875 5873 5871 5870 5869 5868 5868 5865 5863 5862 5863 5864 5866 5869 5871 5872 5873
5814 5815 5803 5810 5831 5837 5840 5839 5846 5851 5853 5855 5856 5859 5862 5864 5865 5867 5868 5868 5869 5871 5871 5871 5870 5869 5869 5868 5866 5865 5865 5863 5862 5860 5858 5857 5857 5858 5861 5862 5864 5865 5866
5807 5802 5803 5796 5791 5808 5828 5832 5836 5843 5846 5848 5849 5851 5854 5857 5859 5860 5861 5862 5863 5864 5865 5867 5866 5863 5862 5862 5861 5861 5860 5858 5857 5857 5854 5852 5852 5852 5854 5856 5857 5859 5860
5796 5794 5799 5786 5800 5811 5820 5824 5828 5833 5836 5839 5841 5844 5846 5849 5850 5851 5852 5854 5855 5856 5857 5859 5859 5859 5856 5854 5855 5854 5854 5853 5852 5852 5852 5848 5847 5848 5849 5850 5851 5853 5854
5782 5784 5789 5794 5799 5799 5790 5812 5819 5823 5826 5829 5832 5835 5836 5839 5841 5843 5844 5846 5846 5847 5849 5851 5850 5851 5851 5846 5847 5846 5847 5847 5847 5847 5846 5846 5844 5844 5843 5843 5845 5845 5847
5769 5772 5777 5783 5787 5791 5797 5802 5807 5812 5816 5819 5823 5825 5827 5829 5832 5832 5835 5837 5838 5837 5838 5839 5841 5841 5841 5839 5837 5839 5839 5840 5841 5842 5841 5841 5841 5840 5841 5840 5839 5840 5840
5761 5766 5768 5773 5778 5783 5787 5793 5796 5800 5805 5810 5812 5814 5816 5818 5821 5822 5823 5824 5828 5829 5829 5830 5830 5830 5829 5829 5828 5830 5831 5833 5833 5834 5834 5834 5835 5835 5835 5835 5834 5834 5834
5752 5757 5760 5763 5768 5772 5777 5782 5785 5790 5794 5798 5801 5803 5805 5807 5808 5811 5811 5813 5814 5817 5818 5819 5819 5817 5817 5817 5816 5820 5822 5823 5825 5826 5827 5826 5827 5828 5828 5828 5827 5829 5829
5742 5747 5751 5755 5759 5762 5764 5770 5774 5779 5783 5785 5788 5792 5793 5794 5796 5798 5799 5800 5802 5805 5806 5806 5807 5807 5806 5807 5810 5812 5813 5813 5816 5816 5819 5819 5820 5822 5821 5821 5821 5820 5821
5734 5739 5743 5746 5749 5751 5754 5759 5762 5764 5767 5772 5777 5779 5780 5782 5781 5784 5786 5788 5791 5794 5792 5796 5799 5797 5797 5798 5802 5804 5804 5804 5807 5809 5809 5812 5812 5814 5813 5814 5814 5814 5813
Wind_Speed
23 17 16 15 14 18 27 19 18 18 18 17 17 16 15 15 14 13 14 12 12 10 10 11 11 10 9 7 7 7 7 9 9 9 10 11 12 11 11 9 10 11 11
21 20 17 17 15 13 27 22 19 18 18 17 16 15 15 14 14 14 14 14 13 12 11 11 12 12 12 12 11 10 10 9 11 11 11 12 11 12 13 13 13 12 10
23 23 21 20 18 15 13 21 21 17 19 19 18 19 17 16 15 14 14 13 14 14 13 13 13 13 14 14 14 13 12 11 11 12 13 15 12 14 15 16 15 10 8
14 13 23 23 17 18 17 17 19 20 19 20 20 21 20 19 18 17 16 15 14 14 15 15 14 14 15 16 15 14 15 14 13 14 14 17 9 16 16 16 15 15 9
16 16 17 20 20 20 22 21 21 23 25 22 21 21 20 20 20 19 19 19 18 18 18 17 16 15 15 16 17 19 19 18 16 16 16 17 17 12 15 16 15 13 13
18 19 19 19 20 21 21 23 25 24 25 24 22 21 21 21 21 21 20 20 20 20 21 19 20 19 19 19 19 18 20 19 19 18 17 18 18 18 15 16 15 14 14
18 19 20 20 23 23 24 24 25 27 27 25 23 23 24 23 22 22 21 21 20 20 20 20 21 22 22 22 22 22 21 20 21 20 20 20 20 20 19 18 17 15 14
17 18 21 22 23 26 29 28 28 28 29 27 27 25 24 25 25 24 24 22 21 21 21 22 23 22 22 22 23 23 23 22 22 23 21 22 22 22 21 21 21 17 16
19 19 18 20 23 26 28 23 29 24 29 31 29 29 28 27 26 25 24 24 23 24 24 24 24 24 24 25 26 27 28 26 26 24 24 24 25 24 24 23 23 22 19
18 19 18 17 18 20 22 21 19 15 20 27 31 31 31 30 30 29 29 25 17 29 30 29 27 27 28 28 29 30 31 31 30 29 29 29 28 28 26 25 24 23 23
20 19 18 18 17 18 19 21 23 21 20 22 26 30 34 35 34 32 32 31 31 29 31 26 27 29 28 28 31 32 34 34 33 32 32 32 31 30 28 26 28 28 29
23 22 21 19 19 19 20 20 20 21 22 22 23 26 28 33 35 35 33 31 26 24 26 26 28 28 32 31 32 34 36 37 38 36 34 35 34 33 32 30 29 28 31
27 23 23 23 21 19 19 19 19 20 22 20 21 21 23 25 29 30 32 28 26 25 25 24 25 26 31 30 31 29 33 37 37 37 38 34 33 32 33 29 28 29 24
38 32 29 27 25 23 21 20 18 18 19 20 20 21 20 20 22 23 23 25 26 25 26 26 26 26 27 27 26 28 33 33 34 35 35 35 35 32 32 31 29 29 24
40 43 39 34 30 30 26 23 22 20 19 17 16 19 21 22 20 22 23 26 27 26 27 27 25 25 27 28 24 25 27 29 29 31 33 35 37 35 30 29 28 26 25
50 49 48 43 37 33 30 28 25 23 20 19 18 19 18 19 17 16 20 20 25 26 25 27 23 24 23 24 22 23 24 25 26 28 30 31 32 31 29 28 26 24 23
54 52 58 48 41 40 36 31 30 29 24 24 22 19 19 20 20 20 21 22 23 24 22 26 23 26 22 20 21 19 20 20 21 25 28 29 28 28 27 26 25 23 25
60 61 61 49 51 48 42 34 34 35 33 28 27 26 25 25 25 24 23 22 22 25 26 25 25 26 24 22 22 22 22 21 21 23 23 21 23 23 26 26 28 29 28
54 61 54 55 37 49 38 37 35 38 37 37 34 32 32 32 30 30 32 28 27 26 26 26 27 27 25 24 25 25 24 22 20 21 21 22 18 21 23 28 30 31 31
50 53 49 51 40 38 35 37 36 38 35 37 36 37 39 38 37 34 34 35 34 34 31 32 29 32 27 27 26 27 26 24 26 24 19 22 22 23 22 21 22 25 26
49 54 48 48 46 49 39 41 40 39 40 40 42 40 39 40 42 41 39 36 37 40 38 38 35 35 33 32 31 30 27 26 26 26 21 19 17 15 17 21 25 23 26
50 48 46 45 48 47 46 43 44 46 46 43 41 42 44 45 46 49 48 47 42 42 44 41 41 46 36 36 36 33 30 27 27 26 26 22 20 17 14 16 17 18 20
52 50 49 51 47 48 49 53 53 50 49 48 49 51 49 50 51 54 56 54 49 48 47 49 50 51 57 39 35 34 31 31 29 27 27 24 23 22 21 21 22 22 21
47 48 51 56 58 57 57 58 57 56 57 57 54 53 49 50 54 55 57 59 59 58 55 48 47 42 49 50 31 33 31 31 31 31 30 28 25 22 20 21 26 27 27
38 43 48 54 53 50 52 53 56 56 54 56 54 55 53 53 59 56 56 59 61 59 54 49 43 44 37 34 37 30 34 34 32 32 31 30 29 25 23 23 24 28 27
34 38 41 44 49 50 51 56 59 53 55 56 56 42 49 43 41 40 42 49 51 52 51 47 45 44 32 35 35 35 37 39 36 34 34 33 32 30 28 26 26 27 28
Wind_Direction
196 189 177 170 177 195 186 189 186 192 196 196 198 205 203 201 205 206 207 206 214 217 220 215 219 229 237 250 267 285 299 311 322 332 337 343 345 346 343 340 336 329 328
194 182 174 177 188 183 175 181 190 196 201 203 203 207 207 206 208 210 209 210 215 219 219 224 226 229 236 244 253 265 277 293 307 316 321 325 329 333 336 334 315 301 308
209 209 194 190 189 192 207 193 189 202 210 211 209 211 214 214 216 216 218 216 221 221 224 231 237 242 246 249 255 265 273 280 291 300 306 315 315 329 334 336 342 341 277
225 213 209 198 209 217 215 208 196 208 209 223 221 221 221 224 225 226 230 231 230 231 228 229 234 242 249 253 256 264 273 276 281 286 298 320 330 328 330 332 333 335 345
230 234 230 214 223 225 224 218 216 217 210 219 225 229 230 231 233 232 232 234 234 240 243 244 243 247 251 255 258 259 260 262 270 278 289 302 323 323 321 326 330 323 329
237 234 235 235 232 230 230 227 226 226 222 220 218 225 233 233 235 237 235 233 237 240 245 250 252 248 250 255 259 263 267 266 268 274 275 282 289 296 297 301 310 312 312
233 240 240 237 239 238 233 233 235 232 230 225 222 223 228 233 234 239 240 238 237 240 247 249 251 255 256 257 259 262 263 266 267 267 272 275 279 285 290 295 298 306 311
236 238 242 241 241 242 241 240 239 233 230 229 231 231 232 233 235 236 241 245 249 250 251 253 255 258 261 263 264 265 267 266 267 267 267 270 272 277 285 291 291 291 297
237 233 237 240 242 246 255 245 241 235 226 227 232 235 238 237 237 238 240 245 255 255 253 258 262 265 267 268 270 270 272 271 271 272 271 270 272 277 281 285 287 286 282
243 247 241 240 242 249 250 254 261 259 229 230 234 237 240 242 243 244 249 248 251 257 263 263 266 267 268 270 271 273 273 274 274 272 272 272 273 276 279 281 283 283 278
242 239 243 242 241 245 250 249 249 252 251 246 239 244 243 244 246 254 258 262 262 263 260 262 262 270 272 272 272 271 272 274 272 273 273 271 272 274 276 275 284 285 284
250 247 244 242 241 243 247 248 246 248 250 246 249 256 254 246 248 252 258 263 263 264 261 259 268 283 278 276 273 275 276 274 277 276 276 273 270 270 272 278 281 283 285
247 249 249 244 244 243 247 252 253 250 248 249 251 252 253 256 259 257 255 263 265 265 264 268 274 272 275 275 275 275 270 273 275 274 273 276 275 272 271 273 276 277 282
252 243 245 244 239 238 239 245 248 248 249 249 250 253 248 248 257 268 269 270 269 270 272 276 275 279 280 279 278 276 274 270 273 277 275 270 272 272 269 269 269 267 273
252 249 239 238 240 239 235 235 241 245 252 255 258 256 255 255 255 262 268 271 271 274 277 278 277 280 289 293 288 279 273 274 279 281 279 274 272 269 264 265 264 259 266
245 246 243 235 233 236 237 240 237 237 242 250 254 259 262 264 262 262 273 272 275 273 273 276 280 284 295 292 291 289 284 286 289 286 285 280 277 266 255 261 257 262 265
241 247 231 218 238 236 234 236 245 247 245 246 251 257 261 265 268 270 268 274 287 287 274 274 276 282 289 292 292 296 294 295 300 294 282 281 276 263 251 254 255 267 266
246 251 253 248 229 235 234 235 241 248 250 248 252 253 255 261 266 268 269 272 281 287 283 275 274 276 288 293 295 298 294 292 296 300 289 287 280 268 255 256 260 266 271
249 258 249 255 236 221 230 239 245 250 255 259 257 258 262 264 266 272 277 276 278 280 283 281 277 276 282 286 289 292 289 289 294 302 300 287 286 287 264 258 264 266 273
251 252 254 264 248 256 241 240 245 250 247 256 259 262 263 265 265 265 269 276 279 280 277 278 277 277 276 279 282 285 288 292 292 293 304 300 287 281 264 264 267 269 271
245 249 253 257 253 257 253 246 250 244 251 255 252 256 259 263 267 269 267 270 277 279 279 273 272 269 273 270 272 276 281 286 289 294 289 298 304 300 287 266 262 267 259
251 253 252 246 249 248 253 249 250 252 255 255 256 259 260 261 264 267 270 271 268 275 280 287 288 275 260 263 265 269 274 280 285 289 292 282 284 284 285 285 274 265 264
250 250 247 244 248 247 245 247 251 252 257 256 259 263 259 262 266 267 269 269 264 271 278 283 289 285 286 258 261 265 270 274 275 278 283 286 278 278 278 279 272 268 263
248 247 244 244 249 249 251 250 252 253 256 258 260 261 261 268 269 267 264 268 269 273 273 281 285 288 277 271 259 260 265 270 273 274 274 278 279 273 271 268 274 276 275
244 248 251 249 254 256 256 255 254 257 258 257 260 263 269 270 264 267 263 264 265 270 272 278 270 283 279 281 274 258 263 265 267 268 268 271 272 271 268 264 264 269 272
243 247 250 251 254 255 261 265 264 264 256 257 260 268 271 269 257 265 262 255 263 270 272 274 263 275 274 277 268 263 260 264 264 264 264 265 267 268 265 263 266 269 274